Temp_Advection
nan nan nan nan nan nan nan nan nan nan nan nan nan nan nan nan nan nan nan nan nan nan nan nan nan nan nan nan nan nan nan nan nan nan nan nan nan nan nan nan nan nan nan nan nan nan nan
nan -0 -0 -0 -0 -0 -0 -0 -0 -0 -0 -0 -0 -0 -0 -0 -0 -0 -0 0 0 -0 -0 -0 -1 -0 0 -1 -1 -0 -0 0 -0 -0 0 -0 -0 -0 -0 -0 -0 -0 -0 -0 -0 0 nan
nan -0 -0 0 -0 -0 -0 -0 -0 -0 -0 -0 -0 -0 -0 -0 -0 -0 -0 -0 0 0 -0 -0 -0 -0 -0 -1 -0 0 0 0 -0 -0 -0 -0 -0 -0 -0 0 -0 0 0 0 -0 0 nan
nan -0 -0 -0 -0 -0 -0 -0 0 -0 -0 -0 -0 -0 -0 -0 -0 -0 -0 -0 -0 0 -0 -0 -0 -1 -0 -1 0 0 0 0 0 0 -0 -0 0 -0 0 0 -0 0 -0 0 -0 0 nan
nan -0 -0 -0 -0 -0 -0 -0 0 0 -0 0 -0 -0 0 -0 -0 -0 -0 -0 -0 0 -0 -0 -0 -1 -0 -0 -0 -0 0 0 0 0 0 0 0 0 0 0 -0 -0 0 0 -0 -0 nan
nan -0 -0 -0 0 -0 0 0 -0 0 -0 0 0 -0 -0 -0 -0 -0 -0 -0 -0 -0 0 0 -0 -0 -0 -0 -0 0 0 0 0 -0 0 0 0 0 0 -0 -0 0 -0 -0 -0 0 nan
nan -0 -0 -0 0 -0 0 0 -0 -0 0 0 0 -0 -0 -0 0 0 0 -1 -0 -0 0 -0 -0 -0 -0 -0 0 -0 0 0 0 0 0 0 0 -0 -0 -0 -0 -0 -0 -0 -0 0 nan
nan -0 -0 -0 -0 -0 -1 -0 0 -0 -0 -0 -0 -0 -0 -0 -0 0 0 0 -0 -0 -0 -1 -0 -1 -0 -0 0 0 0 0 0 0 -0 0 -0 0 0 0 0 0 -0 -0 -0 0 nan
nan -0 -0 -0 -0 0 -0 -0 -0 -0 -0 0 0 0 -0 -0 -0 0 0 0 0 -0 -0 -0 0 -0 -0 -0 -0 0 -0 -0 -0 0 -0 -0 -0 -0 -0 0 0 0 -0 0 0 -0 nan
nan -0 -0 -0 -0 -0 -0 -1 -0 0 0 0 0 0 0 0 -0 -0 0 0 0 0 0 0 -0 -0 -0 0 -0 -0 0 -0 -0 -0 0 0 0 0 -0 -0 -0 0 0 -0 -0 -0 nan
nan -0 -0 -0 -0 -0 -0 -0 -0 -0 0 0 0 0 -0 0 0 0 -0 -0 0 0 0 0 -0 0 0 0 0 0 0 -0 -0 -0 -0 0 0 0 0 0 -0 -0 -0 -0 -0 -0 nan
nan -0 0 -0 -0 -0 0 -0 -0 0 0 -0 -0 0 0 0 0 -0 0 0 0 -0 0 0 0 -0 0 0 -0 0 0 0 -0 -0 -0 0 0 -0 -0 -0 0 -0 -0 -1 -0 -0 nan
nan -0 -0 -0 -0 -0 -0 0 -0 0 0 -0 -0 0 -0 -0 0 -0 -0 -0 -0 0 -0 -0 -0 0 0 0 0 0 0 -0 0 -0 0 -0 -0 -0 -0 -0 -0 -0 -0 0 0 0 nan
nan -0 0 -0 -0 -0 -0 -0 -0 -0 0 -0 0 0 -0 0 0 0 -0 -0 0 0 -0 0 0 0 0 0 0 -0 -0 0 -0 -0 -0 0 0 0 0 -0 0 -0 -0 -0 -0 0 nan
nan 0 0 -0 -0 -0 0 -0 1 1 0 0 0 -1 -1 0 0 0 -0 0 0 -0 -0 0 0 -0 0 0 0 0 0 -0 -0 -0 -0 -0 0 0 0 -0 -0 -0 -0 -0 -0 -0 nan
nan -0 0 0 0 0 -0 1 1 1 0 0 0 -0 0 0 0 -0 0 -0 0 -0 -1 0 -0 0 0 0 0 0 0 -0 -0 -0 -0 -0 0 0 0 -0 -0 -0 -0 -0 0 0 nan
nan 0 -0 0 0 1 1 1 0 1 1 0 0 -0 0 0 -0 0 0 -0 -0 0 1 -0 -0 0 0 0 0 0 0 0 -0 0 -0 -0 -0 0 0 0 0 -0 0 -0 -0 0 nan
nan 1 1 -0 -0 -1 1 0 0 -0 0 -0 0 0 0 0 -0 0 0 0 0 -0 -0 0 0 -0 -0 0 0 0 0 -0 0 -0 0 -0 -0 0 0 -0 0 -0 -0 -0 -0 -0 nan
nan 0 0 1 0 -1 -1 -0 -0 -0 -0 -0 0 -0 0 0 0 0 -0 0 -0 -0 -0 0 0 0 -0 -0 0 0 -0 -0 0 -0 -0 -0 -0 -0 -0 -0 -0 0 0 -0 -0 -0 nan
nan 0 -1 -0 1 -0 -2 -1 -0 -0 -0 -0 -0 -0 -0 -0 -0 -0 0 -0 0 -0 -0 0 0 0 -0 -0 -0 0 0 -0 0 -0 0 -1 -0 -0 -0 0 0 0 -0 0 -0 -0 nan
nan 1 0 -1 0 1 -1 -2 -1 -0 -0 -0 -0 0 -0 -0 -0 -0 -0 -0 0 0 0 -0 0 -0 -0 -0 -0 -0 0 0 0 0 -0 -0 -0 0 -0 0 -0 -0 0 -0 -0 -1 nan
nan 0 1 -0 -0 0 0 -2 -2 -0 -0 -0 -0 0 -0 -0 -0 -0 -0 0 0 0 -0 -0 -0 -0 -0 0 0 -0 -0 0 0 -0 -0 -0 -0 0 -0 -0 -0 -0 -0 -0 -0 -0 nan
nan -0 1 1 0 -0 -0 0 -2 -1 -0 -0 -0 -0 -0 -0 -0 0 -0 0 -0 0 -0 -0 -0 -0 -0 0 0 0 -0 -0 -0 -0 -0 -0 -0 -0 -0 -0 0 0 -0 -0 -0 -0 nan
nan -0 1 1 0 0 -0 0 -0 -1 -0 -0 -0 -0 -0 -0 -0 -0 0 -0 -0 -0 -0 -0 -0 -0 0 0 0 -0 -1 -0 -0 -0 -0 -0 -0 -0 -0 -0 -0 -0 -0 -0 -0 -0 nan
nan -0 0 1 0 0 0 0 -0 -0 -0 -0 -0 0 -0 -0 -0 -0 0 0 0 -0 -0 0 0 0 0 -0 -0 -0 0 -0 -0 0 0 -0 -0 -0 0 -0 -1 -0 -0 -0 -0 -0 nan
nan -0 -0 0 0 0 0 0 0 -0 -0 -0 0 0 -0 -0 -0 -0 -0 0 -0 0 0 0 0 0 -0 -0 0 0 0 -0 -0 -0 0 0 -0 -0 0 -0 -0 -0 0 -0 -0 -0 nan
nan -0 -0 0 0 0 0 0 0 -0 -0 -0 -0 -0 -0 -0 -0 0 -0 -0 -0 -0 0 0 0 0 -0 -0 -0 0 -0 0 0 -0 -0 -0 0 -0 -0 0 -0 -0 -0 -0 0 0 nan
nan -0 0 -0 0 0 0 0 0 0 0 -0 -0 -0 -0 -0 -1 -0 -0 -0 0 -0 -0 0 -0 -0 -0 0 0 -0 -0 -0 0 0 0 0 0 -0 0 0 -1 -0 0 0 0 0 nan
nan nan nan nan nan nan nan nan nan nan nan nan nan nan nan nan nan nan nan nan nan nan nan nan nan nan nan nan nan nan nan nan nan nan nan nan nan nan nan nan nan nan nan nan nan nan nan
Wind_Speed
20 20 21 22 26 24 24 26 27 27 28 27 27 25 25 24 22 23 20 20 18 17 19 18 18 12 14 13 18 4 3 14 24 32 30 21 19 9 6 9 4 3 2 8 14 14 10
20 19 21 26 25 25 26 28 28 29 28 26 25 24 24 23 21 22 20 20 18 17 17 20 15 17 15 8 12 13 4 15 28 30 29 26 15 15 8 4 9 4 11 12 11 11 7
21 22 25 23 25 25 29 28 28 26 26 26 24 22 21 20 19 19 19 18 17 17 17 15 19 11 16 21 6 14 9 17 28 28 29 26 12 18 5 3 8 6 3 1 6 5 5
22 24 24 26 27 29 26 28 26 25 23 24 24 21 20 19 19 17 17 19 19 15 14 11 16 12 7 20 8 13 10 15 24 21 24 24 16 16 5 4 4 6 4 3 3 6 6
23 26 25 28 25 27 27 26 25 26 24 24 22 20 20 19 18 18 16 17 16 12 13 11 13 12 3 11 24 19 15 16 15 19 18 17 20 6 5 5 3 0 4 4 5 5 3
26 25 27 25 26 27 27 28 26 26 25 24 21 22 21 20 16 17 19 20 19 11 9 8 13 5 9 11 27 24 18 15 11 16 11 11 10 4 4 4 6 5 4 3 4 2 3
24 26 23 26 29 29 29 28 26 26 28 26 20 21 20 16 15 16 20 22 5 1 6 9 7 5 2 14 18 25 18 17 12 13 5 8 4 9 13 8 3 5 4 3 3 2 3
24 27 24 26 30 29 29 27 28 26 30 27 25 24 18 13 15 18 20 9 9 6 5 18 11 23 5 14 10 22 19 11 7 5 5 4 4 4 4 2 3 0 2 2 4 0 2
23 25 26 25 30 29 28 28 29 28 28 27 25 21 15 15 17 21 7 12 3 3 3 2 6 7 6 13 10 20 24 8 4 5 5 6 4 13 10 6 5 4 4 3 4 4 2
23 26 27 25 30 29 28 29 30 31 28 28 26 22 14 14 16 8 11 11 7 3 2 4 3 3 8 12 5 21 22 9 3 6 4 4 4 12 9 7 6 4 1 3 3 4 3
24 24 25 26 32 30 28 30 30 31 30 31 32 27 17 15 15 10 9 7 9 3 5 8 6 8 13 2 20 13 10 4 6 4 5 2 4 6 5 3 4 4 5 5 3 3 3
23 23 26 28 28 30 29 30 30 31 34 31 26 13 8 11 3 2 9 9 6 4 4 5 6 6 8 8 4 15 4 7 13 6 5 3 3 3 3 4 2 8 5 6 4 2 2
20 22 26 27 30 27 28 29 32 32 28 27 23 13 9 5 7 7 12 7 3 4 3 3 4 11 9 13 6 4 4 4 3 5 3 4 3 2 5 7 6 5 5 2 4 3 4
19 22 24 26 28 26 28 30 32 26 25 20 18 15 18 17 12 14 8 3 4 2 4 4 7 15 5 5 8 4 4 3 4 4 3 4 1 3 1 4 5 1 5 4 4 1 4
18 21 24 25 27 27 28 29 30 23 17 14 14 19 22 20 15 10 5 3 2 3 5 4 11 6 4 5 4 6 2 4 2 1 5 4 2 1 2 3 5 4 1 2 5 3 3
18 20 23 25 26 26 27 27 26 22 14 8 7 11 12 9 6 2 2 3 3 3 6 5 4 3 5 4 4 4 3 3 2 2 2 3 4 2 2 5 5 3 7 3 3 2 3
20 21 22 25 26 27 25 23 26 23 16 9 6 4 7 7 2 1 2 3 4 7 11 5 3 5 5 5 7 3 8 1 3 3 3 4 3 1 5 3 6 3 1 4 4 3 3
21 22 22 24 25 27 26 21 21 20 18 12 7 2 10 8 3 2 3 3 5 6 4 4 6 8 4 4 3 3 6 3 9 8 5 1 4 3 2 1 1 3 5 5 4 3 2
18 21 22 22 26 27 26 21 17 18 14 14 6 6 9 10 3 3 4 4 2 2 2 2 3 2 3 5 5 3 3 1 10 5 6 4 2 3 5 4 3 2 3 4 4 3 5
18 20 20 22 23 26 27 23 16 15 10 8 5 3 5 4 1 1 2 2 3 4 2 3 4 5 5 3 4 4 2 4 9 7 7 6 3 4 5 4 3 2 4 6 6 3 3
18 20 17 21 22 24 26 24 19 14 7 3 5 1 3 4 4 4 1 4 5 5 4 6 4 5 5 3 3 3 3 3 5 7 4 4 3 2 4 5 3 4 4 7 7 10 5
19 18 16 20 21 22 24 24 20 15 4 5 3 3 5 6 9 5 4 6 6 5 5 4 6 7 5 3 1 6 6 2 2 3 3 2 1 2 4 3 6 4 7 8 8 9 12
20 17 18 20 20 21 22 22 21 16 9 3 4 2 3 6 5 3 3 3 5 2 11 10 3 4 9 5 2 9 4 7 6 6 3 3 4 2 4 3 4 5 10 11 5 5 9
21 16 19 19 19 18 21 20 18 15 10 5 2 2 3 3 2 2 4 3 6 3 5 3 8 4 2 8 7 14 18 14 9 5 5 5 4 2 3 3 1 5 3 7 12 10 13
21 14 17 16 21 16 19 19 14 16 9 5 2 1 1 3 4 6 2 3 5 7 4 4 7 5 4 2 3 3 3 2 4 3 3 3 3 1 1 2 6 2 2 4 5 6 6
21 14 15 13 20 17 17 18 15 12 11 6 3 3 3 3 3 5 3 3 2 2 2 2 5 4 2 3 2 2 3 2 3 2 4 4 4 2 0 2 3 1 3 3 4 3 2
20 13 14 14 19 18 15 15 13 12 11 7 6 6 3 4 5 4 2 2 3 3 3 3 3 2 3 2 2 2 2 2 5 6 4 3 2 4 5 3 6 7 5 6 2 3 6
22 15 16 11 18 20 15 15 13 12 10 9 10 6 2 4 8 3 2 2 1 2 3 4 3 1 2 2 2 2 2 2 1 3 5 6 5 3 3 3 6 4 3 1 3 5 10
17 15 18 11 20 20 16 15 13 14 12 8 11 6 7 6 6 7 7 4 3 2 3 7 3 3 3 3 1 1 2 1 2 2 1 4 6 4 7 5 4 2 9 14 10 10 11
Wind_Direction
340 336 338 329 322 325 330 324 321 319 318 318 315 314 310 306 298 292 289 287 288 298 290 279 247 246 195 198 233 166 199 196 180 189 194 195 187 170 174 181 151 176 238 221 246 262 268
340 340 332 330 333 333 327 328 325 326 324 322 319 313 311 310 302 292 296 292 290 287 282 277 259 233 204 222 247 217 193 188 179 189 195 195 195 181 188 197 178 184 203 257 268 268 249
344 335 328 336 334 326 327 331 332 330 329 325 320 320 317 315 310 302 296 291 293 290 279 278 243 264 214 220 241 213 207 197 184 191 184 191 188 186 192 133 217 212 151 238 238 233 235
335 332 338 333 329 330 333 334 330 328 328 327 322 323 320 316 315 312 302 298 295 295 281 280 259 274 229 230 210 190 175 180 195 198 198 191 176 188 193 160 104 127 86 177 255 173 237
337 333 338 334 332 332 336 329 331 332 327 322 324 324 326 324 322 314 313 314 307 292 276 265 263 252 221 232 199 186 172 166 179 199 199 189 193 178 160 136 79 51 164 188 301 223 228
336 343 336 336 337 333 333 330 332 331 330 326 325 319 318 317 315 311 315 314 323 271 253 260 236 235 231 215 197 185 186 171 160 170 168 165 180 150 134 164 187 167 176 213 208 205 129
337 336 337 335 335 336 334 334 334 329 332 328 326 321 318 311 309 317 316 326 317 313 197 198 232 243 260 191 188 192 180 170 178 171 183 170 159 192 184 180 156 152 154 173 237 247 317
339 338 334 337 338 340 335 337 334 334 330 331 331 319 309 303 309 312 315 314 279 292 303 218 258 220 287 166 163 193 179 159 171 172 116 141 206 137 107 151 106 84 105 297 290 126 305
335 340 335 339 340 339 338 337 333 336 328 323 322 320 301 302 309 310 278 335 246 289 292 198 231 234 204 167 162 167 178 160 128 155 153 167 138 165 167 173 182 206 165 201 233 317 70
340 340 342 342 343 342 339 337 339 335 328 324 316 310 304 303 310 310 268 286 157 211 71 164 241 230 194 147 90 163 167 150 144 143 126 101 132 162 155 170 170 144 184 141 74 39 272
344 344 344 345 343 342 342 342 338 335 334 325 311 299 280 288 292 279 321 132 162 187 86 150 170 160 164 167 136 167 169 139 132 124 93 208 134 140 136 175 149 152 111 90 90 82 2
344 344 349 345 343 344 347 343 345 343 344 348 342 323 283 301 299 294 128 132 148 50 104 168 140 198 127 148 87 147 162 105 129 76 75 146 122 88 131 61 94 125 73 50 56 72 358
345 345 348 345 343 351 345 349 346 353 356 356 23 43 58 58 53 130 130 135 42 108 303 179 184 129 128 140 116 141 94 82 131 120 83 27 9 35 103 76 27 79 77 335 356 14 224
348 348 348 350 347 346 347 352 351 1 6 30 42 48 70 78 100 129 111 34 56 327 255 119 120 112 90 113 127 112 88 99 48 96 116 148 135 171 172 144 168 105 141 161 207 210 289
356 347 351 350 349 352 354 352 355 6 11 39 57 74 74 77 102 127 8 19 314 335 322 126 95 79 84 57 102 103 62 123 174 75 128 125 31 57 124 121 125 180 107 185 105 46 40
348 350 351 351 355 352 355 354 356 4 0 353 7 53 68 79 97 205 36 290 252 221 208 100 72 67 123 129 104 100 145 182 128 110 89 197 87 97 100 101 55 141 153 74 358 124 272
352 343 349 352 353 355 351 357 357 0 7 358 349 354 25 6 331 156 79 307 309 327 36 44 129 108 98 114 108 92 177 71 171 144 59 115 84 190 128 184 170 130 196 54 115 130 166
350 346 345 350 351 355 353 353 358 355 356 13 348 20 352 3 41 21 346 350 336 325 343 16 70 85 92 99 107 115 185 173 183 142 146 77 117 154 147 2 263 166 172 135 124 224 98
346 343 342 348 346 353 356 350 355 351 351 5 354 316 13 12 37 6 336 338 294 281 298 108 100 84 128 123 119 126 195 336 182 142 161 178 20 69 360 349 0 180 178 129 116 92 200
345 341 338 345 346 348 355 352 350 351 344 18 358 359 340 11 130 136 322 320 311 231 315 66 105 104 96 69 46 141 119 11 166 161 176 109 113 148 187 205 136 190 190 175 140 129 199
341 340 339 339 344 347 350 356 349 0 351 14 18 24 334 316 344 341 254 340 28 24 43 48 52 85 118 106 97 104 93 78 56 129 89 101 131 144 246 230 156 203 200 179 190 207 195
338 338 337 337 340 345 348 354 352 359 36 54 62 6 347 287 303 334 335 357 42 15 27 15 75 43 71 106 177 176 129 148 174 59 84 15 168 101 304 289 206 247 221 212 215 231 257
336 347 336 330 337 338 347 351 357 355 22 67 70 48 352 296 323 8 334 28 13 29 37 51 111 90 53 6 70 143 163 139 149 135 119 102 123 73 284 338 318 284 227 196 198 203 221
335 340 326 324 334 333 338 346 352 357 16 37 13 21 353 290 327 291 343 53 43 28 117 11 42 77 103 124 76 80 80 83 83 51 119 127 106 112 251 6 270 243 141 181 203 237 212
330 325 313 321 332 329 330 340 351 347 347 337 263 201 269 278 274 310 182 129 104 77 78 73 49 72 121 93 71 59 23 54 41 58 99 128 122 145 235 221 277 273 225 138 173 279 218
321 325 317 332 316 324 322 330 335 335 334 310 207 224 232 281 228 319 303 193 139 94 63 82 71 55 72 74 81 175 180 171 155 114 42 82 98 121 268 240 247 221 135 135 108 293 251
320 319 326 319 313 324 314 316 326 322 331 305 255 236 227 259 272 331 238 223 156 129 128 139 146 83 55 73 100 170 230 118 169 174 170 165 181 211 228 269 284 254 249 144 50 311 313
307 310 312 311 301 320 305 312 313 311 313 317 282 247 222 250 269 239 307 319 151 154 132 160 106 19 65 102 153 210 183 230 174 187 172 177 177 188 171 216 267 217 115 132 231 308 318
301 300 307 301 307 314 302 306 309 299 294 291 279 221 233 263 262 284 277 214 178 141 147 159 124 151 155 101 173 100 224 126 164 234 183 203 189 184 188 217 255 254 294 294 303 309 310
Height
1528 1524 1521 1517 1513 1508 1504 1499 1495 1490 1486 1482 1478 1475 1471 1468 1466 1464 1462 1461 1460 1459 1458 1457 1458 1459 1457 1459 1454 1454 1455 1455 1462 1467 1470 1475 1479 1482 1485 1487 1489 1491 1491 1491 1492 1494 1495
1525 1522 1519 1515 1509 1505 1501 1495 1490 1486 1481 1477 1473 1469 1466 1463 1460 1458 1457 1456 1455 1454 1453 1452 1452 1455 1453 1454 1451 1454 1455 1456 1459 1463 1468 1473 1476 1481 1484 1484 1487 1487 1489 1491 1492 1491 1492
1525 1521 1516 1511 1507 1502 1497 1492 1487 1482 1479 1474 1469 1465 1462 1459 1456 1454 1453 1451 1450 1449 1448 1447 1448 1449 1448 1446 1449 1451 1453 1453 1457 1460 1465 1472 1476 1481 1482 1484 1484 1486 1490 1489 1488 1489 1491
1523 1519 1514 1509 1504 1499 1494 1489 1485 1480 1475 1471 1466 1462 1459 1455 1453 1451 1449 1447 1445 1445 1443 1444 1444 1444 1442 1444 1447 1450 1451 1453 1458 1462 1467 1471 1475 1479 1483 1482 1483 1487 1490 1496 1486 1487 1488
1522 1518 1512 1508 1501 1496 1492 1487 1482 1476 1472 1467 1463 1459 1455 1452 1451 1448 1446 1443 1441 1440 1440 1441 1442 1442 1440 1441 1443 1449 1450 1453 1457 1462 1466 1471 1475 1478 1480 1483 1489 1488 1498 1495 1491 1485 1487
1521 1516 1513 1506 1499 1493 1489 1484 1479 1473 1468 1463 1460 1456 1452 1449 1447 1445 1443 1440 1437 1435 1437 1439 1440 1442 1438 1438 1441 1447 1451 1454 1458 1461 1465 1469 1474 1476 1479 1483 1489 1493 1492 1493 1492 1486 1486
1519 1513 1508 1504 1497 1491 1486 1480 1475 1470 1465 1460 1456 1453 1449 1446 1445 1443 1441 1438 1439 1437 1435 1433 1433 1432 1431 1437 1442 1446 1449 1453 1458 1462 1463 1465 1471 1470 1474 1477 1480 1484 1488 1488 1487 1484 1485
1517 1513 1506 1500 1495 1489 1483 1478 1472 1467 1462 1457 1452 1449 1446 1443 1441 1440 1439 1438 1437 1438 1435 1431 1432 1433 1433 1437 1440 1445 1450 1454 1457 1459 1463 1468 1466 1469 1473 1477 1480 1483 1487 1489 1486 1484 1485
1514 1509 1504 1497 1491 1486 1481 1475 1470 1464 1459 1454 1449 1444 1442 1440 1438 1435 1435 1435 1435 1436 1435 1431 1432 1431 1433 1437 1439 1443 1450 1452 1456 1460 1461 1463 1466 1470 1475 1478 1482 1484 1488 1489 1491 1487 1488
1513 1508 1501 1496 1489 1483 1479 1473 1467 1461 1454 1448 1444 1440 1438 1437 1436 1432 1431 1432 1434 1435 1442 1432 1434 1429 1431 1433 1441 1445 1450 1453 1456 1460 1460 1464 1466 1469 1471 1476 1479 1484 1481 1486 1490 1492 1499
1510 1505 1500 1494 1487 1481 1477 1472 1465 1457 1449 1442 1436 1432 1433 1433 1431 1429 1431 1430 1433 1435 1470 1431 1432 1429 1431 1433 1438 1446 1449 1452 1455 1458 1462 1470 1467 1470 1473 1473 1474 1482 1484 1487 1492 1499 1500
1507 1505 1499 1493 1486 1480 1475 1470 1462 1454 1446 1437 1426 1425 1426 1428 1426 1430 1430 1432 1435 1446 1436 1427 1427 1426 1433 1435 1438 1446 1449 1450 1454 1459 1465 1469 1467 1469 1472 1476 1476 1481 1487 1495 1501 1505 1518
1506 1502 1496 1492 1485 1479 1474 1468 1461 1454 1445 1438 1430 1425 1423 1427 1429 1430 1433 1435 1445 1453 1433 1426 1423 1425 1433 1436 1441 1445 1447 1453 1458 1467 1473 1469 1473 1472 1473 1479 1482 1485 1494 1519 1522 1529 1510
1504 1501 1494 1490 1485 1478 1472 1467 1461 1454 1449 1443 1435 1430 1429 1428 1429 1432 1435 1438 1441 1427 1426 1421 1421 1430 1434 1437 1444 1448 1453 1458 1460 1462 1474 1480 1483 1474 1475 1479 1484 1487 1492 1510 1499 1518 1510
1502 1500 1493 1489 1484 1478 1472 1466 1460 1455 1451 1448 1444 1438 1434 1434 1435 1437 1437 1439 1436 1432 1430 1422 1427 1434 1441 1444 1445 1452 1456 1460 1461 1461 1470 1482 1480 1474 1475 1477 1480 1491 1506 1497 1510 1520 1529
1503 1499 1494 1487 1483 1478 1472 1466 1460 1455 1451 1449 1446 1442 1440 1439 1439 1440 1441 1438 1437 1437 1432 1427 1432 1439 1444 1449 1450 1456 1457 1460 1461 1462 1462 1470 1483 1475 1478 1478 1482 1484 1491 1507 1524 1524 1514
1501 1500 1493 1487 1482 1477 1471 1466 1462 1457 1452 1449 1447 1443 1443 1442 1440 1440 1441 1436 1434 1429 1429 1430 1437 1440 1445 1448 1450 1455 1459 1459 1459 1463 1463 1467 1476 1483 1479 1482 1486 1490 1495 1500 1504 1509 1511
1500 1497 1494 1487 1482 1477 1472 1466 1463 1458 1455 1451 1448 1447 1443 1441 1443 1442 1439 1440 1439 1436 1432 1433 1435 1438 1444 1448 1452 1455 1458 1458 1459 1461 1467 1468 1481 1483 1480 1483 1483 1483 1487 1494 1513 1514 1512
1498 1495 1492 1488 1483 1477 1472 1466 1462 1459 1455 1453 1452 1449 1445 1442 1445 1443 1444 1441 1440 1436 1435 1435 1438 1439 1442 1448 1455 1456 1458 1457 1459 1462 1466 1468 1486 1504 1495 1488 1485 1483 1485 1489 1498 1505 1525
1497 1494 1491 1487 1482 1477 1472 1466 1462 1459 1457 1456 1454 1455 1449 1446 1445 1446 1446 1441 1440 1436 1436 1435 1438 1439 1443 1448 1451 1457 1458 1459 1458 1461 1464 1466 1481 1486 1495 1489 1487 1492 1484 1488 1492 1512 1502
1495 1493 1490 1487 1482 1478 1472 1467 1462 1459 1457 1456 1457 1458 1457 1455 1446 1446 1445 1440 1439 1440 1436 1436 1440 1440 1443 1451 1452 1457 1459 1460 1461 1463 1466 1469 1486 1487 1483 1480 1485 1482 1479 1485 1491 1485 1497
1494 1491 1489 1485 1482 1478 1473 1468 1464 1460 1457 1456 1458 1459 1457 1454 1450 1448 1445 1444 1442 1441 1441 1442 1444 1445 1445 1449 1451 1456 1457 1460 1460 1465 1468 1472 1489 1488 1487 1476 1478 1481 1479 1479 1481 1480 1479
1493 1489 1487 1483 1481 1478 1475 1470 1465 1461 1459 1458 1458 1459 1459 1455 1452 1449 1448 1445 1445 1443 1446 1446 1448 1448 1451 1453 1451 1451 1454 1457 1458 1463 1470 1474 1484 1491 1493 1479 1477 1478 1465 1468 1469 1469 1465
1490 1487 1486 1483 1480 1477 1474 1471 1468 1464 1462 1462 1460 1460 1460 1458 1455 1452 1448 1447 1447 1447 1449 1451 1449 1449 1456 1455 1455 1456 1457 1459 1462 1464 1465 1476 1481 1486 1494 1482 1483 1456 1451 1452 1456 1455 1457
1487 1484 1484 1481 1478 1476 1474 1470 1468 1465 1463 1462 1461 1461 1460 1457 1456 1451 1449 1449 1449 1449 1450 1452 1453 1454 1454 1455 1459 1463 1464 1463 1466 1466 1467 1468 1474 1481 1484 1493 1471 1448 1445 1450 1454 1451 1446
1485 1481 1480 1478 1475 1474 1472 1469 1467 1465 1462 1461 1461 1459 1460 1458 1453 1453 1450 1449 1451 1451 1452 1454 1455 1455 1455 1457 1460 1457 1459 1462 1466 1468 1470 1470 1472 1478 1482 1484 1468 1446 1446 1446 1447 1454 1443
1482 1479 1478 1476 1473 1471 1470 1467 1465 1463 1461 1460 1458 1458 1458 1457 1451 1451 1451 1450 1449 1450 1453 1453 1455 1456 1457 1460 1465 1469 1464 1459 1464 1464 1468 1470 1471 1474 1474 1479 1465 1447 1444 1446 1451 1451 1442
1479 1477 1476 1473 1470 1468 1466 1464 1463 1461 1460 1458 1456 1455 1455 1454 1450 1449 1450 1449 1448 1449 1450 1453 1456 1457 1459 1462 1465 1465 1466 1463 1462 1460 1463 1464 1467 1469 1473 1477 1472 1443 1445 1446 1444 1441 1440
1475 1473 1472 1469 1467 1465 1463 1461 1460 1458 1457 1456 1455 1453 1453 1453 1450 1448 1448 1448 1448 1449 1450 1451 1453 1454 1455 1459 1464 1462 1458 1460 1462 1463 1460 1463 1460 1461 1465 1458 1443 1442 1442 1442 1440 1439 1438